Location: Angwan Shehu
(11.2514°N, 7.4613°E)
Time: 22:48:05
(UTC+00:00)

Vanguard 3 - Pass Details

Date: 29 July 2021
Orbit: 510 x 3260 km, 33.3° (Epoch: 18 September)

Event Time Altitude Azimuth Distance (km) Brightness Sun altitude
Rises 21:49:48 0° 302° (WNW) 7,075 12.5 -50.2°
Reaches altitude 10° 21:55:07 10° 309° (NW) 6,169 12.1 -51.1°
Maximum altitude 22:13:19 41° 14° (NNE) 3,874 10.5 -53.8°
Enters shadow 22:17:59 36° 43° (NE) 3,856 10.4 -54.5°
